Hourly Data Report for November 28, 2017

SHEARWATER RCS
NOVA SCOTIA

44°37'47.000" N
63°30'48.000" W
24.00 m
8205092
71264
AAW

Download Data

Hourly Data (November 2017)
Hourly Data Report for November 28, 2017
TIME
LST
Temp Definition
°C
Dew Point Definition
°C
Rel Hum Definition
%
Precip. Amount Definition
mm

Wind Dir Definition
10's deg

Wind Spd Definition
km/h
Visibility Definition
km
Stn Press Definition
kPa
Hmdx Definition


Wind Chill Definition


Weather Definition


00:00 -3.3 -11.0 55 0.0 31 20   101.44   -9 LegendNANA
01:00 -3.8 -11.0 57 0.0 31 19   101.52   -10 LegendNANA
02:00 -4.6 -11.8 57 0.0 33 21   101.66   -11 LegendNANA
03:00 -4.7 -11.0 62 0.0 32 19   101.78   -11 LegendNANA
04:00 -5.1 -10.4 66 0.0 31 19   101.86   -12 LegendNANA
05:00 -5.4 -10.2 69 0.0 32 14   102.03   -11 LegendNANA
06:00 -5.4 -10.0 70 0.0 32 19   102.16   -12 LegendNANA
07:00 -5.6 -10.0 71 0.0 31 14   102.29   -11 LegendNANA
08:00 -5.1 -9.5 71 0.0 31 15   102.44   -11 LegendNANA
09:00 -3.9 -9.2 67 0.0 31 19   102.58   -10 LegendNANA
10:00 -3.1 -9.5 61 0.0 31 19   102.59   -9 LegendNANA
11:00 -1.8 -10.5 51 0.0 32 16   102.57   -7 LegendNANA
12:00
13:00 0.1 -12.2 39 0.0 31 14   102.57     LegendNANA
14:00 -0.1 -12.6 38 0.0 31 15   102.57   -5 LegendNANA
15:00 -0.3 -13.5 36 0.0 30 16   102.59   -5 LegendNANA
16:00 -0.4 -12.8 39 0.0 32 9   102.63   -4 LegendNANA
17:00 -1.3 -11.9 44 0.0 32 5   102.62   -3 LegendNANA
18:00 -2.1 -10.1 54 0.0 4 4   102.58   -4 LegendNANA
19:00 -2.6 -9.9 57 0.0 4 1   102.59   -3 LegendNANA
20:00 -3.0 -9.8 59 0.0 8 5   102.54   -5 LegendNANA
21:00 -3.0 -9.2 62 0.0 10 1   102.48   -3 LegendNANA
22:00 -0.4 -8.0 56 0.0 21 4   102.40   -2 LegendNANA
23:00 0.0 -6.0 64 0.0 24 7   102.28   -2 LegendNANA

Notes on Data Quality.

Legend

  • E = Estimated
  • M = Missing
  • NA = Not Available*
  • [empty] = Indicates an unobserved value
Date modified: